Temperature
18 18 18 17 17 17 17 17 18 18 18 18 17 17 18 17 16 16 16 17 17 17 17 17 17 18 19 19 18 18 18 18 17 18 18 18 18 18 18 17 17 17 17
18 17 18 17 17 17 17 17 18 17 17 17 17 17 17 17 16 16 16 16 17 17 17 17 17 17 18 18 18 18 17 17 17 17 17 17 17 17 17 17 17 17 17
17 17 17 17 17 17 17 17 17 17 17 17 16 17 17 16 16 16 16 16 16 17 17 17 17 17 17 18 18 18 17 17 17 17 17 17 17 17 17 16 16 17 17
17 17 17 17 17 17 17 17 17 17 17 17 17 16 16 16 16 16 16 16 16 16 16 17 17 17 17 17 17 17 17 17 17 17 17 17 17 17 16 16 16 16 16
17 17 17 17 17 17 17 17 17 17 17 17 16 16 16 16 16 16 17 16 16 16 16 16 17 17 17 17 17 17 17 17 17 17 17 17 17 17 16 16 16 16 16
17 17 17 17 17 17 17 16 16 16 16 16 17 16 16 16 16 16 16 16 16 16 16 16 16 16 17 17 16 17 17 17 16 17 17 17 17 17 16 16 16 16 16
17 17 17 17 17 17 17 16 16 16 16 16 16 16 16 16 16 16 16 16 16 16 16 16 16 16 16 16 16 16 16 16 16 16 16 16 17 17 17 16 16 16 15
17 17 17 17 17 17 16 16 16 16 16 16 16 16 17 17 16 16 16 16 16 16 16 16 16 16 16 16 16 16 16 16 16 16 16 16 17 17 17 16 16 16 16
17 17 17 17 17 16 16 16 16 16 16 16 16 16 17 18 18 17 16 16 16 16 16 16 16 16 15 15 15 16 16 16 16 16 16 16 16 17 16 16 16 15 15
17 17 17 17 16 16 16 17 17 16 16 16 16 15 16 17 16 17 16 16 16 16 16 15 16 16 15 15 15 15 16 16 16 16 16 16 16 16 16 16 15 15 15
17 17 17 17 16 16 16 16 16 16 16 15 15 15 15 15 15 16 16 16 16 15 15 15 16 15 15 15 15 15 16 16 16 16 16 16 16 16 16 16 15 15 15
17 17 17 17 17 16 16 16 16 15 15 15 15 15 15 14 15 15 15 15 15 15 15 15 15 15 15 15 15 15 16 16 16 16 16 16 16 15 16 16 15 15 15
17 17 17 17 16 16 16 16 16 15 15 15 14 14 14 14 14 14 14 15 15 15 15 15 15 15 15 15 15 15 15 15 16 16 16 16 16 16 15 15 15 15 15
16 16 16 16 16 16 16 16 15 15 15 14 14 14 14 14 14 14 14 14 14 14 14 15 15 15 15 15 15 15 15 15 15 16 16 16 16 16 16 15 15 15 15
16 16 16 16 16 16 15 15 15 14 14 14 14 14 14 14 14 14 14 14 14 14 14 15 15 15 15 15 15 15 14 15 15 15 16 16 16 16 16 16 15 15 16
16 16 16 16 15 15 15 15 15 14 14 14 14 14 14 14 14 14 14 14 14 14 14 14 14 14 15 15 15 15 14 15 15 15 15 15 16 15 15 16 15 15 15
16 16 16 16 15 15 15 15 14 14 14 14 14 14 14 14 14 14 14 14 14 14 13 14 14 14 14 14 14 15 15 15 15 15 15 15 15 15 15 15 15 15 15
16 15 15 15 15 15 15 14 14 14 14 14 14 14 14 13 13 13 13 13 13 13 13 13 13 13 14 14 14 14 15 15 15 15 16 15 15 15 15 15 15 15 15
15 15 15 15 15 14 14 14 14 14 14 14 14 14 13 13 13 12 13 13 13 13 13 13 13 13 14 14 14 15 14 15 15 15 16 16 15 15 15 15 15 15 15
15 15 15 15 14 14 14 14 14 14 14 14 14 14 13 13 13 13 13 13 13 13 13 13 13 13 13 14 14 14 14 14 14 15 15 16 15 15 15 15 15 15 15
15 15 14 14 14 14 14 14 14 14 14 14 14 14 14 14 14 13 13 13 13 13 13 13 13 13 13 13 13 13 13 13 13 14 14 14 15 15 15 15 15 15 15
14 14 14 14 14 14 14 14 14 14 14 14 14 14 14 14 14 14 14 13 13 13 13 13 13 13 13 13 13 13 13 13 13 13 14 14 14 14 14 15 15 15 15
14 14 14 13 13 14 14 14 14 14 14 14 14 14 13 13 14 13 13 14 13 13 13 13 13 13 13 13 13 13 13 13 13 13 13 13 13 14 14 14 15 15 14
13 13 13 12 12 13 13 13 14 14 13 13 13 13 13 13 13 13 13 13 13 13 13 13 13 13 12 12 12 12 12 12 12 12 12 12 13 13 13 13 14 14 14
11 11 12 12 12 12 12 13 13 12 13 13 13 13 13 13 13 13 13 13 13 13 13 13 13 13 12 12 12 12 12 12 12 12 12 12 12 12 13 13 12 13 13
11 11 11 11 12 12 12 12 12 12 12 12 12 12 13 13 13 13 13 13 13 13 13 13 13 13 13 13 12 12 12 12 12 12 12 12 12 12 12 12 12 12 12
Wind_Speed
7 6 6 5 6 6 7 5 4 4 3 3 2 1 2 2 3 3 3 5 7 7 6 5 5 6 6 6 5 6 6 6 7 8 9 9 9 8 7 5 4 3 3
7 6 6 6 6 7 7 6 4 4 3 2 2 1 0 1 2 3 4 4 6 8 6 3 3 5 6 6 5 6 6 6 7 8 9 9 9 9 8 6 4 3 2
8 7 6 7 7 8 8 5 4 3 3 3 3 1 0 2 2 3 4 4 4 7 8 5 1 1 3 4 5 6 6 6 6 7 7 7 7 7 7 6 4 4 3
10 7 6 6 7 8 7 5 4 4 4 4 3 2 2 1 1 3 3 2 4 4 7 9 6 3 3 5 6 7 7 6 6 7 7 6 5 5 4 4 5 5 4
11 9 6 5 8 7 7 6 6 5 4 4 3 3 4 3 2 2 2 1 2 3 3 7 9 8 4 5 6 6 6 5 5 5 5 4 3 2 2 3 4 4 3
12 10 7 8 8 7 6 7 7 6 5 5 5 5 5 5 4 3 2 3 2 1 2 2 3 7 8 5 5 5 5 5 5 5 4 3 2 2 3 3 3 4 4
12 11 7 8 8 8 9 10 9 9 7 6 6 6 6 7 7 5 4 4 3 2 2 1 0 2 6 9 7 5 4 4 4 5 4 2 2 2 2 3 2 2 3
11 10 9 8 9 9 12 12 10 9 8 7 7 7 6 7 7 7 6 5 6 5 4 3 3 2 2 5 6 7 6 4 4 4 3 2 1 1 3 2 2 1 1
11 10 10 10 9 8 7 9 10 11 9 9 9 7 6 5 4 6 8 7 7 6 6 5 4 4 3 3 5 7 5 5 4 3 3 2 2 2 3 3 3 4 5
10 10 10 9 8 7 8 9 9 8 9 9 8 9 10 7 6 4 6 8 8 8 8 6 6 5 5 4 2 3 4 3 2 2 2 3 3 5 6 6 5 6 6
8 8 8 8 8 8 9 8 8 9 8 9 8 8 9 8 11 9 6 6 6 8 8 8 7 6 6 6 6 6 6 4 2 1 2 4 4 5 6 6 5 5 4
4 7 8 8 8 8 8 8 8 9 9 9 9 9 8 8 9 9 9 8 6 5 7 7 7 7 8 8 7 7 8 7 5 4 3 4 4 4 4 4 3 2 1
5 9 9 9 8 8 8 8 8 8 10 10 10 10 9 10 10 9 10 9 8 5 5 6 8 8 9 9 9 11 10 10 9 7 5 4 3 3 2 1 1 1 1
6 8 9 9 9 8 8 8 7 8 9 10 10 11 9 10 10 10 10 9 8 7 7 8 6 8 10 11 11 14 11 15 13 10 8 6 5 4 3 2 1 1 2
6 7 8 9 9 9 9 9 8 9 9 9 8 9 9 8 9 9 9 9 9 8 8 8 6 6 8 10 9 12 12 15 16 13 11 9 7 7 6 5 4 3 2
6 7 9 10 10 10 10 9 8 8 8 7 6 8 8 7 7 7 8 8 9 9 7 5 5 4 3 6 8 12 12 12 15 15 14 12 11 10 9 8 7 6 5
5 7 8 9 10 10 10 9 9 8 8 7 8 8 8 7 6 6 7 8 8 8 9 7 4 5 5 6 5 9 12 12 13 19 18 17 15 14 12 11 10 9 8
3 6 7 8 9 9 10 10 9 8 8 8 8 7 7 6 8 8 7 9 9 9 9 9 7 7 10 9 7 8 9 10 11 16 21 19 19 18 16 15 13 12 11
2 3 5 7 8 8 9 10 9 9 8 7 6 6 5 5 7 7 8 9 8 8 8 8 8 7 7 7 7 8 9 8 10 11 16 19 20 20 19 18 17 16 15
4 2 1 4 6 7 8 8 9 10 9 8 6 4 4 4 4 6 7 8 7 6 7 8 8 7 6 4 5 7 8 8 8 10 12 15 18 21 22 21 20 19 18
4 3 2 1 0 2 4 5 8 10 10 8 7 5 4 2 3 3 4 4 3 3 2 3 5 5 6 5 5 5 7 6 7 7 9 10 12 14 18 21 22 22 21
6 5 4 4 4 4 5 5 7 9 9 7 7 7 5 6 7 6 4 5 6 4 3 3 3 3 4 4 4 4 4 4 4 4 7 9 9 11 11 13 17 22 23
9 8 7 7 7 8 8 5 7 8 8 7 7 8 6 6 5 6 6 8 7 5 4 4 4 3 2 2 4 4 4 5 5 3 3 6 6 8 8 10 10 14 17
10 9 9 9 10 12 13 10 4 5 5 6 7 9 9 9 8 5 5 5 4 3 3 5 4 2 2 3 2 2 2 3 4 2 3 3 3 4 5 6 8 11 13
9 9 9 10 10 11 16 15 11 1 1 3 5 7 9 9 3 2 7 6 5 4 3 6 7 6 6 5 5 4 3 3 3 3 3 2 1 2 3 2 3 3 8
7 7 9 9 10 10 14 15 13 5 4 3 3 4 5 6 2 3 8 8 7 5 3 3 4 5 5 4 4 5 4 4 3 1 2 2 1 2 1 2 3 3 3
Wind_Direction
193 183 188 179 184 171 173 183 199 166 193 187 154 144 101 57 17 354 24 48 14 354 325 290 241 226 227 224 221 206 191 182 171 162 160 160 159 162 164 162 158 152 139
197 197 193 191 191 185 181 190 189 175 185 169 164 154 28 58 53 13 22 79 68 33 8 322 258 245 244 218 199 190 191 182 173 172 173 176 178 180 181 173 173 178 171
201 202 204 196 195 192 192 202 180 187 163 168 199 225 87 3 5 7 21 19 69 71 48 25 356 240 202 182 164 161 172 176 173 170 172 173 176 180 176 172 181 192 202
208 208 213 208 201 195 198 195 205 195 181 195 203 198 215 207 301 347 328 13 33 40 71 56 55 84 146 158 153 145 149 157 156 152 145 142 146 161 179 198 207 209 205
209 210 213 214 200 202 207 203 210 212 206 206 220 220 234 241 265 276 288 324 54 16 49 84 80 67 92 146 147 143 145 149 148 144 143 148 159 178 205 219 205 200 208
211 213 210 211 204 206 216 225 222 228 238 228 232 230 234 235 240 237 266 273 267 50 1 23 105 88 77 106 129 143 153 160 164 162 161 167 186 200 225 226 215 219 235
216 221 223 217 210 213 218 228 233 234 236 234 240 238 233 230 238 217 223 246 234 217 218 197 184 110 112 102 84 86 120 147 164 172 163 160 188 194 213 220 229 247 263
216 221 223 222 220 224 231 235 232 240 235 226 236 245 245 223 220 222 212 224 238 211 226 210 196 204 182 154 102 73 69 110 134 142 152 153 135 163 181 187 199 231 223
216 216 218 219 223 220 225 227 226 229 223 217 227 237 250 255 219 203 214 215 223 227 225 220 211 194 200 201 169 129 84 78 113 118 115 106 119 126 148 144 128 114 103
208 210 214 216 219 215 214 215 214 220 225 223 221 234 247 265 258 233 207 215 214 221 229 215 227 219 198 202 184 124 133 111 108 103 96 81 115 125 126 124 117 112 106
200 199 202 205 215 210 213 210 212 222 227 234 231 230 239 252 253 257 241 213 211 222 227 228 221 222 214 213 206 171 167 183 186 143 101 89 112 130 129 125 121 118 109
196 194 198 206 207 204 206 211 215 223 235 239 242 241 235 240 243 248 251 242 229 221 218 222 229 219 219 225 212 165 191 201 202 183 138 109 107 121 130 133 128 116 67
213 205 202 203 202 204 206 208 216 227 232 239 244 249 247 246 251 253 256 254 239 233 233 224 222 220 217 220 212 194 209 210 210 202 185 166 146 141 144 147 136 56 20
230 215 206 200 198 201 204 208 222 229 240 241 246 251 252 252 250 247 248 248 240 237 236 237 217 221 218 218 217 195 215 208 214 213 208 201 187 180 181 184 197 328 358
229 207 196 196 197 201 207 211 226 234 241 246 247 251 251 255 253 248 244 237 237 240 236 236 228 220 214 220 199 211 227 203 207 215 216 215 211 209 206 207 217 236 267
201 191 193 195 193 196 200 208 221 227 234 241 247 251 252 256 260 260 254 243 239 245 251 241 225 209 193 216 210 231 236 193 204 215 219 219 219 219 218 219 224 232 243
198 200 208 205 194 192 195 196 209 206 220 224 226 236 243 249 248 250 253 250 241 234 243 248 246 238 228 235 217 233 238 227 220 211 216 217 218 220 221 225 229 234 241
211 213 212 215 205 200 199 197 202 204 213 220 227 238 248 246 253 254 249 248 242 232 234 241 233 235 248 258 261 255 241 237 241 208 209 216 218 218 219 223 229 234 240
139 191 213 224 221 216 212 209 204 209 215 219 227 250 269 262 255 254 251 250 244 236 229 238 242 235 238 244 250 256 249 243 243 227 208 219 222 221 222 225 228 232 238
93 92 194 232 233 233 230 226 219 219 219 215 216 234 254 251 257 265 265 262 255 246 238 240 245 240 229 212 222 241 242 235 237 230 219 223 222 220 225 228 230 233 238
62 57 58 99 239 258 255 253 242 233 225 217 216 223 228 269 337 305 302 300 285 258 239 245 248 237 221 194 208 227 246 258 255 241 234 222 218 222 224 228 231 234 235
38 36 43 69 61 36 357 301 268 248 238 233 234 235 218 212 212 218 259 303 317 304 277 233 224 227 214 208 213 219 241 256 266 237 244 245 227 233 233 234 220 221 227
44 43 47 63 67 41 15 341 259 253 234 230 244 249 239 232 227 234 210 223 239 230 262 294 277 268 242 209 213 217 228 243 257 269 245 263 239 245 251 240 220 219 225
51 54 56 65 65 47 35 24 322 246 243 238 239 246 245 238 228 246 249 250 267 256 243 259 281 314 347 356 326 310 305 285 271 239 224 263 236 250 271 258 205 226 239
53 58 57 56 57 45 31 18 352 25 270 258 255 252 253 251 160 227 260 259 262 265 220 253 298 307 319 302 295 292 280 268 260 222 195 246 314 310 305 316 102 203 242
51 58 59 50 45 38 29 21 4 2 354 335 284 252 239 265 342 246 253 258 267 283 278 238 240 246 270 270 247 252 274 279 269 236 170 188 35 349 329 38 12 354 289
Height
1552 1553 1554 1554 1556 1557 1557 1558 1559 1559 1559 1560 1560 1560 1560 1559 1559 1557 1556 1554 1553 1553 1553 1553 1553 1554 1554 1555 1555 1556 1557 1558 1559 1560 1561 1561 1562 1563 1563 1564 1564 1563 1563
1551 1552 1553 1553 1555 1556 1557 1558 1559 1558 1559 1559 1560 1559 1559 1559 1558 1557 1557 1555 1553 1553 1552 1552 1552 1553 1553 1554 1554 1555 1556 1557 1558 1559 1560 1561 1561 1562 1562 1562 1563 1563 1562
1549 1550 1552 1552 1553 1554 1556 1557 1558 1558 1558 1558 1559 1560 1559 1559 1558 1558 1557 1556 1555 1553 1553 1552 1552 1552 1553 1553 1553 1554 1555 1556 1557 1558 1559 1560 1561 1561 1561 1561 1561 1561 1561
1548 1549 1550 1551 1552 1553 1554 1555 1556 1557 1557 1558 1559 1559 1559 1557 1557 1556 1557 1558 1556 1555 1554 1553 1552 1552 1553 1553 1553 1553 1554 1555 1556 1557 1558 1559 1559 1559 1560 1560 1559 1559 1559
1546 1547 1548 1549 1551 1551 1553 1554 1555 1556 1556 1557 1557 1557 1557 1557 1556 1555 1557 1557 1557 1556 1556 1554 1553 1552 1552 1553 1554 1553 1554 1555 1556 1557 1557 1558 1558 1558 1558 1558 1558 1558 1557
1542 1544 1545 1546 1548 1549 1550 1552 1553 1553 1554 1555 1556 1556 1556 1555 1555 1554 1554 1555 1557 1556 1556 1556 1556 1553 1552 1553 1554 1554 1554 1554 1555 1555 1556 1556 1556 1556 1556 1556 1556 1556 1556
1539 1541 1542 1544 1545 1546 1547 1549 1549 1550 1551 1553 1554 1554 1554 1553 1553 1552 1552 1553 1555 1555 1555 1555 1556 1555 1554 1553 1554 1554 1554 1554 1555 1555 1555 1555 1555 1555 1555 1555 1555 1555 1554
1536 1538 1539 1541 1542 1543 1544 1546 1546 1547 1549 1550 1551 1552 1551 1552 1549 1550 1549 1550 1552 1553 1554 1554 1555 1554 1555 1554 1554 1553 1554 1554 1554 1554 1554 1554 1554 1554 1554 1554 1554 1554 1553
1533 1534 1536 1538 1539 1540 1541 1542 1543 1544 1545 1546 1547 1549 1549 1547 1548 1548 1547 1547 1549 1551 1552 1553 1554 1553 1553 1554 1553 1552 1553 1554 1554 1553 1553 1553 1553 1554 1554 1554 1554 1553 1553
1530 1531 1533 1535 1537 1538 1538 1540 1540 1541 1542 1543 1544 1544 1545 1545 1546 1545 1545 1545 1546 1548 1549 1550 1550 1552 1552 1552 1551 1551 1552 1553 1553 1553 1553 1553 1553 1553 1553 1553 1553 1552 1552
1527 1528 1530 1531 1533 1534 1535 1536 1537 1538 1539 1540 1541 1541 1541 1541 1543 1543 1542 1543 1543 1544 1545 1547 1548 1549 1549 1549 1549 1550 1551 1551 1552 1552 1552 1552 1552 1553 1553 1553 1552 1551 1550
1525 1526 1527 1528 1529 1530 1531 1532 1533 1534 1535 1537 1538 1538 1538 1538 1538 1539 1540 1540 1540 1542 1542 1543 1544 1545 1546 1547 1547 1547 1549 1550 1550 1550 1550 1550 1551 1552 1552 1552 1551 1550 1549
1523 1524 1525 1526 1526 1527 1528 1529 1530 1532 1533 1533 1534 1534 1534 1534 1534 1535 1536 1536 1537 1538 1539 1540 1541 1542 1542 1543 1544 1545 1546 1547 1548 1548 1548 1549 1549 1550 1550 1550 1550 1549 1547
1521 1522 1523 1524 1524 1525 1526 1526 1527 1529 1530 1530 1530 1530 1529 1529 1530 1530 1531 1532 1532 1534 1535 1538 1539 1539 1539 1540 1541 1543 1543 1544 1545 1545 1546 1546 1547 1548 1548 1548 1548 1547 1545
1519 1520 1521 1522 1523 1523 1524 1525 1525 1526 1526 1527 1526 1526 1525 1524 1525 1525 1526 1527 1529 1529 1530 1533 1535 1536 1536 1537 1538 1540 1541 1542 1543 1543 1543 1544 1545 1545 1546 1546 1546 1545 1544
1518 1518 1519 1519 1520 1520 1521 1522 1522 1523 1523 1523 1523 1523 1522 1521 1521 1522 1523 1523 1523 1525 1526 1528 1530 1532 1533 1534 1535 1537 1539 1539 1540 1540 1541 1541 1542 1542 1543 1544 1544 1543 1542
1515 1516 1517 1518 1518 1518 1518 1519 1519 1519 1520 1520 1520 1520 1519 1518 1517 1518 1519 1520 1520 1520 1521 1523 1525 1528 1529 1531 1533 1533 1535 1535 1536 1537 1538 1539 1539 1540 1540 1541 1541 1541 1540
1514 1515 1515 1516 1516 1516 1517 1517 1517 1517 1518 1518 1519 1519 1517 1515 1514 1514 1514 1515 1515 1516 1517 1518 1519 1522 1525 1528 1529 1530 1531 1532 1533 1533 1534 1535 1536 1536 1537 1538 1538 1538 1537
1512 1512 1513 1514 1514 1514 1515 1515 1516 1516 1517 1517 1518 1517 1515 1512 1510 1511 1511 1511 1511 1511 1512 1514 1515 1517 1520 1522 1524 1525 1526 1527 1528 1528 1529 1530 1531 1532 1533 1534 1534 1534 1534
1511 1511 1511 1511 1511 1512 1513 1514 1514 1515 1516 1516 1516 1515 1513 1511 1510 1509 1509 1509 1508 1508 1509 1510 1511 1513 1515 1516 1518 1520 1522 1522 1523 1523 1523 1524 1526 1527 1528 1529 1529 1529 1529
1510 1509 1508 1508 1508 1509 1510 1512 1513 1514 1515 1515 1515 1514 1513 1512 1510 1509 1509 1508 1507 1506 1506 1506 1507 1508 1510 1512 1514 1516 1517 1518 1518 1518 1518 1519 1520 1521 1522 1523 1523 1524 1524
1508 1507 1507 1506 1506 1507 1508 1510 1511 1512 1513 1513 1513 1514 1513 1511 1511 1509 1508 1508 1506 1506 1505 1505 1505 1505 1506 1508 1509 1511 1512 1512 1513 1513 1514 1515 1515 1516 1517 1517 1517 1518 1519
1506 1506 1505 1505 1506 1506 1507 1508 1509 1510 1510 1510 1510 1511 1512 1511 1510 1510 1509 1508 1507 1505 1504 1504 1505 1505 1505 1505 1506 1506 1507 1508 1508 1508 1508 1509 1510 1510 1511 1512 1512 1512 1512
1507 1506 1506 1506 1506 1505 1505 1505 1506 1506 1506 1506 1507 1507 1508 1509 1508 1509 1509 1508 1507 1506 1504 1503 1504 1504 1504 1504 1504 1505 1505 1505 1505 1504 1504 1504 1505 1505 1506 1506 1506 1507 1507
1510 1509 1508 1507 1506 1505 1505 1504 1504 1504 1503 1502 1503 1503 1504 1505 1505 1505 1506 1506 1505 1505 1503 1503 1502 1502 1503 1503 1503 1503 1503 1503 1502 1501 1500 1500 1500 1501 1502 1502 1502 1502 1503
1511 1510 1509 1508 1507 1506 1505 1504 1503 1502 1501 1500 1500 1499 1499 1500 1501 1501 1502 1503 1503 1504 1503 1502 1502 1501 1501 1501 1502 1502 1501 1500 1499 1499 1498 1498 1498 1498 1498 1498 1499 1499 1499